Regional Weather Roundup
Issued by NWS

Home | Current Version | Previous Version | Graphics & Text | Print | Product List | Glossary On
Versions: 1 2 3 4 5 6 7 8 9 10 11 12 13 14 15 16 17 18 19 20 21 22 23 24 25 26 27 28 29 30 31 32 33 34 35 36 37 38 39 40 41 42 43 44 45 46 47 48 49 50
000
ASUS43 KOAX 230010
RWRNE

WEATHER ROUNDUP FOR NEBRASKA
NATIONAL WEATHER SERVICE OMAHA NE
700 PM CDT WED MAR 22 2017

NOTES: SATELLITE DATA IS BEING USED TO AUGMENT CLOUD COVER ABOVE
       12000 FEET.
       "FAIR" INDICATES FEW OR NO CLOUDS BELOW 12,000 FEET WITH NO
       SIGNIFICANT WEATHER AND/OR OBSTRUCTIONS TO VISIBILITY.

  * THESE STATIONS DO NOT REPORT WEATHER SUCH AS RAIN...SNOW OR FOG.

NEZ001>004-019>022-054>056-230100-
NEBRASKA PANHANDLE

CITY           SKY/WX    TMP DP  RH WIND       PRES   REMARKS
SCOTTSBLUFF    CLOUDY    68  34  28 SE15      29.80F
6HR MIN TEMP:  55; 6HR MAX TEMP:  72;

ALLIANCE       CLOUDY    60  36  40 S21G28    29.86R
6HR MIN TEMP:  50; 6HR MAX TEMP:  65;

CHADRON        CLOUDY    67  37  33 S12       29.78S
6HR MIN TEMP:  55; 6HR MAX TEMP:  69;

KIMBALL        CLOUDY    66  38  36 SE17      29.85F
SIDNEY         CLOUDY    62  35  36 SE23G30   29.86F
6HR MIN TEMP:  52; 6HR MAX TEMP:  66;

$$

NEZ057>060-069>072-079>082-230100-
SOUTHWEST NEBRASKA

CITY           SKY/WX    TMP DP  RH WIND       PRES   REMARKS
NORTH PLATTE   CLOUDY    52  30  43 SE18G24   29.98F
6HR MIN TEMP:  45; 6HR MAX TEMP:  55;

IMPERIAL       SUNNY     55  35  47 S25G31    29.94S
6HR MIN TEMP:  51; 6HR MAX TEMP:  60;

LEXINGTON      CLOUDY    51  28  41 SE21      30.04S
MCCOOK         CLOUDY    52  33  48 SE16G23   30.01S
6HR MIN TEMP:  45; 6HR MAX TEMP:  55;

OGALLALA       SUNNY     59  34  39 SE15      29.93S
$$

NEZ005>010-023>029-035>040-094-230100-
NORTH CENTRAL NEBRASKA

CITY           SKY/WX    TMP DP  RH WIND       PRES   REMARKS
VALENTINE      CLOUDY    51  30  44 S24G33    29.92S
6HR MIN TEMP:  45; 6HR MAX TEMP:  57;

AINSWORTH      CLOUDY    49  32  50 S24G32    29.96F
BROKEN BOW     CLOUDY    51  27  39 S22G30    30.02F
6HR MIN TEMP:  45; 6HR MAX TEMP:  53;

O`NEILL        CLOUDY    52  23  32 SE18      30.03F
ORD            CLOUDY    53  21  28 S20G29    30.03F
6HR MIN TEMP:  44; 6HR MAX TEMP:  54;

THEDFORD       CLOUDY    51  32  48 S14G24    29.97F
$$

NEZ041-046>049-061>064-073>077-083>087-230100-
SOUTH CENTRAL NEBRASKA

CITY           SKY/WX    TMP DP  RH WIND       PRES   REMARKS
GRAND ISLAND   CLOUDY    53  21  28 S17G25    30.09F
6HR MIN TEMP:  48; 6HR MAX TEMP:  57;

AURORA         CLOUDY    54  18  24 SE14G22   30.10S
HASTINGS       CLOUDY    51  23  33 SE17G23   30.09F
6HR MIN TEMP:  47; 6HR MAX TEMP:  56;

HEBRON         CLOUDY    54  21  27 SE17      30.12S
HOLDREGE       CLOUDY    49  25  38 SE17      30.06S
KEARNEY *      CLOUDY    48  25  40 SE17      30.09R
YORK           CLOUDY    55  18  22 S20       30.11S
$$

NEZ011>018-030>034-042>045-230100-
NORTHEAST NEBRASKA

CITY           SKY/WX    TMP DP  RH WIND       PRES   REMARKS
NORFOLK        CLOUDY    47  22  37 SE17      30.10F
6HR MIN TEMP:  41; 6HR MAX TEMP:  51;

ALBION         CLOUDY    53  16  23 SE16G25   30.08F
BLAIR          PTCLDY    49  24  38 SE17G23   30.18S
FREMONT        CLOUDY    49  25  38 E13G22    30.16S
TEKAMAH        PTCLDY    48  25  40 SE21G26   30.18F
6HR MIN TEMP:  44; 6HR MAX TEMP:  50;

WAYNE          PTCLDY    47  25  42 SE16G24   30.14F
$$

NEZ050>053-065>068-078-088>093-230100-
SOUTHEAST NEBRASKA

CITY           SKY/WX    TMP DP  RH WIND       PRES   REMARKS
LINCOLN        CLOUDY    53  22  29 SE20G28   30.16F
6HR MIN TEMP:  48; 6HR MAX TEMP:  54;

OMAHA EPPLEY   CLOUDY    49  24  37 SE22      30.19F
6HR MIN TEMP:  45; 6HR MAX TEMP:  51;

BEATRICE       CLOUDY    56  23  27 SE15G21   30.14S
FALLS CITY     CLOUDY    53  25  33 E18       30.18F
6HR MIN TEMP:  50; 6HR MAX TEMP:  59;

NEBRASKA CITY  MOCLDY    50  17  27 SE21G26   30.18F
PLATTSMOUTH    MOCLDY    48  20  32 SE15      30.18F
$$

NEZ044-045-051>053-067-230100-
OMAHA AREA

CITY           SKY/WX    TMP DP  RH WIND       PRES   REMARKS
OMAHA EPPLEY   CLOUDY    49  24  37 SE22      30.19F
6HR MIN TEMP:  45; 6HR MAX TEMP:  51;

BLAIR          PTCLDY    49  24  38 SE17G23   30.18S
FREMONT        CLOUDY    49  25  38 E13G22    30.16S
MILLARD        CLOUDY    50  28  43 SE10G17   30.18F
OFFUTT AFB     PTCLDY    48  25  40 E21       30.19F
PLATTSMOUTH    MOCLDY    48  20  32 SE15      30.18F
WAHOO          MOCLDY    49  23  35 SE20G26   30.16S
$$



USA.gov is the U.S. government's official web portal to all federal, state and local government web resources and services.